Deming, NM

9:25 PM MDT on October 23, 2017 (GMT -0600)
Deming Municipal

Weather History for KDMN - March, 2013

Change the Weather History Date:

Sunday, March 17, 2013

  Actual Average Record
Temperature  
Mean Temperature 58 °F 51 °F  
Max Temperature 77 °F 68 °F 84 °F (2007)
Min Temperature 39 °F 35 °F 20 °F (1991)
Degree Days  
Heating Degree Days 7    
Growing Degree Days 8 (Base 50)    
Moisture  
Dew Point 16 °F    
Average Humidity 24    
Maximum Humidity 38    
Minimum Humidity 10    
Precipitation  
Precipitation 0.00 in 0.01 in 0.11 in (2015)
Month to date precipitation 0.19 0.28  
Year to date precipitation 0.48 1.48  
Sea Level Pressure  
Sea Level Pressure 29.76 in    
Wind  
Wind Speed 16 mph (West)    
Max Wind Speed 38 mph    
Max Gust Speed 48 mph    
Visibility 8 miles    
Events      
T = Trace of Precipitation, MM = Missing Value Source: NWS Daily Summary

Daily Weather History Graph

Daily Weather History Graph

Search for Another Location

Airport or City:

Trip Planner

Search our weather history database for the weather conditions in past years. The results will help you decide how hot, cold, wet, or windy it might be!

Date:

Astronomy

Mar. 17, 2013 Rise Set
Actual Time 7:18 AM MDT 7:20 PM MDT
Civil Twilight 6:53 AM MDT 7:45 PM MDT
Nautical Twilight 6:25 AM MDT 8:13 PM MDT
Astronomical Twilight 5:56 AM MDT 8:42 PM MDT
Moon 10:51 AM MDT (3/17) 12:12 AM MDT (3/17)
Length of Visible Light 12h 51m
Length of Day
12h 02m
Waxing Crescent, 32% of the Moon is Illuminated
Mar 17
Waxing Crescent
Mar 19
First Quarter
Mar 27
Full
Apr 2
Last Quarter
Apr 10
New

Hourly Weather History & Observations

Time (MDT) Temp. Windchill Dew Point Humidity Pressure Visibility Wind Dir Wind Speed Gust Speed Precip Events Conditions
12:53 AM 52.0 °F - 17.1 °F 25% 29.72 in 10.0 mi West 6.9 mph - N/A   Clear
1:53 AM 52.0 °F - 17.1 °F 25% 29.72 in 10.0 mi WNW 12.7 mph - N/A   Clear
2:53 AM 48.9 °F - 17.1 °F 28% 29.72 in 10.0 mi West 11.5 mph - N/A   Clear
3:53 AM 46.0 °F 43.1 °F 16.0 °F 30% 29.73 in 10.0 mi SSE 5.8 mph - N/A   Clear
4:53 AM 46.0 °F 43.9 °F 17.1 °F 31% 29.75 in 10.0 mi NNW 4.6 mph - N/A   Clear
5:53 AM 41.0 °F 37.1 °F 18.0 °F 40% 29.76 in 10.0 mi West 5.8 mph - N/A   Clear
6:53 AM 39.9 °F 37.8 °F 16.0 °F 38% 29.78 in 10.0 mi SW 3.5 mph - N/A   Clear
7:53 AM 42.1 °F 40.2 °F 17.1 °F 37% 29.80 in 10.0 mi WSW 3.5 mph - N/A   Clear
8:53 AM 51.1 °F - 19.9 °F 29% 29.82 in 10.0 mi WSW 5.8 mph - N/A   Clear
9:53 AM 62.1 °F - 21.9 °F 21% 29.79 in 10.0 mi West 10.4 mph - N/A   Clear
10:53 AM 66.9 °F - 16.0 °F 14% 29.79 in 10.0 mi West 13.8 mph 23.0 mph N/A   Clear
11:53 AM 71.1 °F - 19.0 °F 14% 29.76 in 10.0 mi West 21.9 mph 31.1 mph N/A   Clear
12:53 PM 73.0 °F - 19.0 °F 13% 29.74 in 10.0 mi West 23.0 mph 33.4 mph N/A   Clear
1:53 PM 75.0 °F - 16.0 °F 11% 29.70 in 4.0 mi West 29.9 mph 39.1 mph N/A   Haze
2:21 PM 75.2 °F - 15.8 °F 11% 29.85 in 2.5 mi West 27.6 mph 40.3 mph N/A   Haze
2:33 PM 75.2 °F - 15.8 °F 11% 29.84 in 4.0 mi West 32.2 mph 41.4 mph N/A   Haze
2:53 PM 75.9 °F - 17.1 °F 11% 29.67 in 8.0 mi WNW 28.8 mph 38.0 mph N/A   Clear
3:00 PM 75.2 °F - 17.6 °F 11% 29.83 in 1.8 mi West 31.1 mph 39.1 mph N/A   Haze
3:22 PM 77.0 °F - 15.8 °F 10% 29.83 in 3.0 mi West 25.3 mph 43.7 mph N/A   Haze
3:31 PM 75.2 °F - 15.8 °F 11% 29.82 in 2.5 mi WNW 20.7 mph 42.6 mph N/A   Haze
3:37 PM 75.2 °F - 15.8 °F 11% 29.82 in 6.0 mi West 27.6 mph 39.1 mph N/A   Haze
3:53 PM 75.9 °F - 16.0 °F 10% 29.66 in 6.0 mi WNW 27.6 mph 38.0 mph N/A   Haze
4:53 PM 75.9 °F - 15.1 °F 10% 29.66 in 4.0 mi West 28.8 mph 42.6 mph N/A   Haze
5:53 PM 73.9 °F - 14.0 °F 10% 29.69 in 9.0 mi West 28.8 mph 40.3 mph N/A   Clear
6:53 PM 72.0 °F - 15.1 °F 11% 29.71 in 10.0 mi West 26.5 mph 34.5 mph N/A   Clear
7:53 PM 66.9 °F - 12.0 °F 12% 29.74 in 10.0 mi WNW 12.7 mph - N/A   Clear
8:53 PM 63.0 °F - 10.0 °F 13% 29.75 in 10.0 mi West 16.1 mph - N/A   Clear
9:53 PM 61.0 °F - 12.9 °F 15% 29.75 in 10.0 mi West 17.3 mph - N/A   Clear
10:53 PM 59.0 °F - 17.1 °F 20% 29.76 in 10.0 mi WNW 17.3 mph - N/A   Clear
11:53 PM 57.9 °F - 17.1 °F 20% 29.76 in 10.0 mi WNW 18.4 mph 27.6 mph N/A   Clear